Home   Weather   Davis   Past weeks
Flag for USA

Past Weather in Davis, California, USA — Yesterday and Last 2 Weeks

Now
61 °F

Passing clouds.


Feels Like: 61 °F
Forecast: 72 / 52 °F
Wind: 7 mph from North

Location: Sacramento International Airport

Current Time: Oct 17, 2019 at 11:13:07 am

Latest Report: Oct 17, 2019 at 9:53 am


Visibility: 10 mi

Pressure: 29.90 "Hg

Humidity: 70%

Dew Point: 51 °F

Location of DavisLocation

Past Weather in Davis — Graph

°F

Davis Temperature Yesterday

Maximum temperature yesterday: 75 °F (at 3:53 pm)
Minimum temperature yesterday: 44 °F (at 6:53 am)
Average temperature yesterday: 59 °F

High & Low Weather Summary for the Past Weeks

 TemperatureHumidityPressure
High87 °F (Oct 7, 4:53 pm)93% (Oct 17, 6:53 am)30.15 "Hg (Oct 17, 6:53 am)
Low42 °F (Oct 14, 6:53 am)11% (Oct 10, 2:53 pm)29.75 "Hg (Oct 8, 6:53 pm)
Average62 °F47%29.94 "Hg
* Reported Oct 2 9:53 am — Oct 17 9:53 am, Davis. Weather by CustomWeather, © 2019

Note: Actual official high and low records may vary slightly from our data, if they occured in-between our weather recording intervals... More about our weather records

Advertising

Davis Weather History for the Previous 24 Hours

Scroll right to see more
 ConditionsComfort  
Time TempWeatherWind HumidityBarometerVisibility
9:53 am
Thu, Oct 17
61 °FPassing clouds.7 mph70%29.90 "Hg10 mi
8:53 am57 °FScattered clouds.10 mph81%29.90 "Hg10 mi
6:53 am54 °FPassing clouds.5 mph93%29.88 "Hg10 mi
5:53 am56 °FPassing clouds.6 mph87%29.85 "Hg10 mi
4:53 am56 °FPassing clouds.7 mph87%29.84 "Hg10 mi
3:53 am58 °FPassing clouds.6 mph84%29.83 "Hg10 mi
2:53 am59 °FPassing clouds.8 mph84%29.83 "Hg10 mi
1:53 am60 °FPassing clouds.6 mph80%29.83 "Hg10 mi
12:53 am59 °FPassing clouds.9 mph75%29.83 "Hg10 mi
11:53 pm
Wed, Oct 16
59 °FPassing clouds.9 mph69%29.83 "Hg10 mi
10:53 pm60 °FPassing clouds.10 mph67%29.83 "Hg10 mi
9:53 pm61 °FOvercast.13 mph65%29.82 "Hg10 mi
8:53 pm61 °FOvercast.13 mph65%29.81 "Hg10 mi
7:53 pm63 °FOvercast.12 mph58%29.81 "Hg10 mi
6:53 pm66 °FOvercast.8 mph54%29.82 "Hg10 mi
5:53 pm70 °FOvercast.12 mph35%29.82 "Hg10 mi
4:53 pm74 °FOvercast.12 mph32%29.84 "Hg10 mi
3:53 pm75 °FOvercast.10 mph33%29.86 "Hg10 mi
2:53 pm74 °FOvercast.6 mph31%29.88 "Hg10 mi
1:53 pm73 °FOvercast.6 mph33%29.91 "Hg10 mi
12:53 pm70 °FPartly sunny.7 mph38%29.94 "Hg10 mi
11:53 am66 °FPartly sunny.3 mph45%29.97 "Hg10 mi
Weather by CustomWeather, © 2019

See weather overview